Flag for Germany Weather past 2 weeks in Geldern, North Rhine-Westphalia, Germany

Now
34 °F

Clear.


Feels Like: 29 °F
Forecast: 46 / 52 °F
Wind: 6 mph from Southeast

Location: Niederrhein

Current Time: Mar 28, 2015 at 6:22:09 AM

Latest Report: Mar 28, 2015 at 5:50 AM


Visibility: 10 mi

Pressure: 30.15 "Hg

Humidity: 93%

Dew point: 32 °F

Location of GeldernLocation

Historic Weather in Geldern — Graph

°F

Geldern temperature yesterday

Maximum temperature yesterday: 48 °F (at 12:50 PM)
Minimum temperature yesterday: 34 °F (at 11:20 PM)
Average temperature yesterday: 45 °F

Past Weeks' High & Low Weather Summary

 TemperatureHumidityPressure
High63 °F (Mar 17, 2:20 PM)100% (Mar 18, 6:50 AM)30.39 "Hg (Mar 18, 6:50 AM)
Low30 °F (Mar 23, 5:50 AM)42% (Mar 17, 2:20 PM)29.65 "Hg (Mar 25, 6:20 AM)
Average43 °F78%30.13 "Hg
* Reported Mar 13 5:20 AM — Mar 28 5:20 AM, Geldern, Weather by CustomWeather, © 2015

Note: Actual official high and low records may vary slightly from our data, if they occured in-between our weather recording intervals... More about our weather records

Advertising

Geldern weather history for previous 24 hours

 ConditionsComfort  
Time TempWeatherWind HumidityBarometerVisibility
5:20 AM
Sat, Mar 28
34 °FClear.5 mph93%30.15 "Hg10 mi
11:50 PM
Fri, Mar 27
34 °FClear.No wind93%30.21 "Hg10 mi
11:20 PM34 °FClear.2 mph93%30.21 "Hg10 mi
10:50 PM37 °FClear.No wind87%30.21 "Hg10 mi
10:20 PM39 °FClear.1 mph81%30.21 "Hg10 mi
9:50 PM41 °FClear.3 mph76%30.21 "Hg10 mi
9:20 PM43 °FClear.5 mph76%30.21 "Hg10 mi
8:50 PM45 °FClear.7 mph71%30.18 "Hg10 mi
8:20 PM45 °FPassing clouds.7 mph71%30.18 "HgN/A
7:50 PM45 °FSunny.8 mph71%30.18 "Hg10 mi
7:20 PM46 °FPassing clouds.8 mph66%30.18 "HgN/A
6:50 PM46 °FPartly sunny.8 mph66%30.15 "HgN/A
6:20 PM46 °FScattered clouds.9 mph66%30.15 "HgN/A
5:50 PM46 °FScattered clouds.10 mph66%30.12 "HgN/A
5:20 PM46 °FScattered clouds.10 mph66%30.12 "HgN/A
4:50 PM48 °FPartly sunny.14 mph62%30.12 "HgN/A
4:20 PM48 °FScattered clouds.14 mph62%30.12 "HgN/A
3:50 PM48 °FPartly sunny.13 mph66%30.09 "HgN/A
3:20 PM48 °FBroken clouds.13 mph62%30.09 "HgN/A
2:50 PM48 °FPartly sunny.13 mph62%30.09 "HgN/A
2:20 PM48 °FScattered clouds.13 mph62%30.07 "HgN/A
1:50 PM48 °FScattered clouds.15 mph62%30.07 "HgN/A
1:20 PM48 °FScattered clouds.15 mph62%30.04 "HgN/A
12:50 PM48 °FScattered clouds.17 mph62%30.04 "HgN/A
12:20 PM46 °FPartly sunny.18 mph71%30.04 "HgN/A
11:50 AM46 °FBroken clouds.15 mph66%30.04 "HgN/A
11:20 AM46 °FPartly sunny.16 mph66%30.01 "HgN/A
10:50 AM46 °FPartly sunny.17 mph71%30.01 "HgN/A
10:20 AM46 °FSprinkles. Broken clouds.10 mph71%30.01 "HgN/A
9:50 AM45 °FSprinkles. Partly sunny.14 mph76%29.98 "HgN/A
9:20 AM45 °FPartly sunny.15 mph76%29.95 "HgN/A
8:50 AM45 °FPartly sunny.16 mph76%29.95 "HgN/A
8:20 AM43 °FScattered clouds.15 mph81%29.95 "HgN/A
7:50 AM43 °FScattered clouds.16 mph81%29.95 "HgN/A
7:20 AM43 °FPassing clouds.14 mph81%29.92 "HgN/A
6:50 AM43 °FPassing clouds.14 mph81%29.92 "HgN/A
6:20 AM43 °FPassing clouds.13 mph81%29.89 "HgN/A
Weather by CustomWeather, © 2015

See weather overviewHow to use our weather pages